Location: Unspecified
(0.0000°N, 0.0000°E)
Time: 23:29:59
(UTC+00:00)

Envisat - Pass Details

Date: 23 January 2022
Orbit: 764 x 766 km, 98.2° (Epoch: 27 January)

Event Time Altitude Azimuth Distance (km) Brightness Sun altitude
Rises 04:42:37 0° 4° (N) 3,212 6.1 -21.0°
Reaches altitude 10° 04:44:56 10° 1° (N) 2,290 5.3 -20.4°
Maximum altitude 04:49:54 58° 282° (WNW) 883 2.9 -19.3°
Drops below altitude 10° 04:54:52 10° 203° (SSW) 2,300 5.4 -18.1°
Sets 04:57:13 0° 199° (SSW) 3,229 6.3 -17.5°
